Home   Weather   Columbus   Past weeks
Flag for USA

Past Weather in Columbus, Ohio, USA — Yesterday and Last 2 Weeks

Now
6 °F

Passing clouds.


Feels Like: -3 °F
Forecast: 33 / 4 °F
Wind: 5 mph from East

Location: John Glenn Columbus International Airport

Current Time: Jan 21, 2019 at 11:16:04 pm

Latest Report: Jan 21, 2019 at 9:51 pm


Visibility: 10 mi

Pressure: 30.62 "Hg

Humidity: 69%

Dew Point: -2 °F

Location of ColumbusLocation

Past Weather in Columbus — Graph

°F

Columbus Temperature Yesterday

Maximum temperature yesterday: 22 °F (at 12:51 am)
Minimum temperature yesterday: 4 °F (at 11:51 pm)
Average temperature yesterday: 12 °F

High & Low Weather Summary for the Past Weeks

 TemperatureHumidityPressure
High62 °F (Jan 8, 1:51 pm)100% (Jan 17, 10:51 pm)30.65 "Hg (Jan 17, 10:51 pm)
Low-2 °F (Jan 21, 7:51 am)42% (Jan 21, 4:51 pm)29.53 "Hg (Jan 19, 8:08 pm)
Average29 °F76%30.17 "Hg
* Reported Jan 6 9:51 pm — Jan 21 9:51 pm, Columbus. Weather by CustomWeather, © 2019

Note: Actual official high and low records may vary slightly from our data, if they occured in-between our weather recording intervals... More about our weather records

Advertising

Columbus Weather History for the Previous 24 Hours

Scroll right to see more
 ConditionsComfort  
Time TempWeatherWind HumidityBarometerVisibility
9:51 pm
Mon, Jan 21
6 °FPassing clouds.5 mph69%30.62 "Hg10 mi
8:51 pm7 °FPassing clouds.3 mph70%30.63 "Hg10 mi
7:51 pm8 °FPassing clouds.3 mph63%30.63 "Hg10 mi
6:51 pm9 °FPassing clouds.No wind61%30.64 "Hg10 mi
5:51 pm10 °FPassing clouds.5 mph58%30.64 "Hg10 mi
4:51 pm14 °FPassing clouds.No wind42%30.62 "Hg10 mi
3:51 pm12 °FSunny.No wind48%30.62 "Hg10 mi
2:51 pm12 °FSunny.No wind51%30.61 "Hg10 mi
1:51 pm10 °FSunny.No wind53%30.62 "Hg10 mi
12:51 pm8 °FSunny.No wind57%30.63 "Hg10 mi
11:51 am6 °FSunny.No wind57%30.65 "Hg10 mi
10:51 am3 °FSunny.No wind60%30.65 "Hg10 mi
9:51 am1 °FSunny.7 mphN/A30.62 "Hg10 mi
8:51 am-2 °FSunny.8 mph65%30.60 "Hg10 mi
7:51 am-2 °FSunny.7 mph62%30.56 "Hg10 mi
6:51 am-1 °FClear.10 mph62%30.53 "Hg10 mi
5:51 am-1 °FClear.7 mphN/A30.48 "Hg10 mi
4:51 am1 °FClear.9 mph62%30.46 "Hg10 mi
3:51 am2 °FClear.10 mph63%30.44 "Hg10 mi
2:51 am1 °FClear.7 mph68%30.43 "Hg10 mi
1:51 am2 °FClear.8 mph65%30.41 "Hg10 mi
12:51 am3 °FClear.8 mph66%30.40 "Hg10 mi
11:51 pm
Sun, Jan 20
4 °FClear.7 mph63%30.39 "Hg10 mi
Weather by CustomWeather, © 2019

See weather overview